| time (UTC) | temp F | wind direction | speed MPH | gust MPH | rain 1hr in | rain 24hr in | rain mn in | humidity % | barometer mb |
| 20260508064527 | 47 | 259 | 0.0 | 2.0 | 0.00 | 0.03 | 0.03 | 84 | 1010.8 |
| 20260508063025 | 47 | 257 | 0.0 | 2.0 | 0.00 | 0.03 | 0.03 | 84 | 1010.9 |
| 20260508061524 | 47 | 244 | 0.0 | 0.0 | 0.00 | 0.03 | 0.03 | 84 | 1010.9 |
| 20260508060023 | 47 | 258 | 0.0 | 2.0 | 0.00 | 0.03 | 0.03 | 83 | 1010.9 |
| 20260508054520 | 47 | 204 | 0.0 | 2.0 | 0.00 | 0.03 | 0.03 | 83 | 1010.9 |
| 20260508053020 | 48 | 250 | 0.0 | 1.0 | 0.00 | 0.03 | 0.03 | 82 | 1010.6 |
| 20260508051519 | 48 | 255 | 0.0 | 1.0 | 0.00 | 0.03 | 0.03 | 81 | 1010.8 |
| 20260508050018 | 49 | 271 | 0.0 | 3.0 | 0.00 | 0.03 | 0.03 | 81 | 1010.7 |
| 20260508044516 | 49 | 222 | 0.0 | 4.0 | 0.00 | 0.03 | 0.03 | 81 | 1010.5 |
| 20260508043045 | 48 | 267 | 0.0 | 2.0 | 0.00 | 0.03 | 0.03 | 82 | 1010.3 |
| 20260508041552 | 48 | 231 | 0.0 | 5.0 | 0.00 | 0.03 | 0.03 | 82 | 1010.4 |
| 20260508040015 | 47 | 247 | 0.0 | 2.0 | 0.00 | 0.03 | 0.03 | 84 | 1010.4 |
| 20260508034516 | 45 | 276 | 0.0 | 1.0 | 0.00 | 0.03 | 0.03 | 88 | 1010.3 |
| 20260508033016 | 44 | 232 | 0.0 | 1.0 | 0.00 | 0.03 | 0.03 | 88 | 1010.2 |
| 20260508031507 | 44 | 204 | 0.0 | 0.0 | 0.00 | 0.03 | 0.03 | 87 | 1010.2 |
| 20260508030004 | 44 | 204 | 0.0 | 0.0 | 0.00 | 0.03 | 0.03 | 87 | 1010.2 |
| 20260508024503 | 44 | 203 | 0.0 | 0.0 | 0.00 | 0.03 | 0.03 | 88 | 1010.3 |
| 20260508023040 | 44 | 203 | 0.0 | 0.0 | 0.00 | 0.03 | 0.03 | 88 | 1010.1 |
| 20260508021533 | 45 | 203 | 0.0 | 0.0 | 0.00 | 0.03 | 0.03 | 88 | 1010.2 |
| 20260508020026 | 45 | 201 | 0.0 | 0.0 | 0.00 | 0.03 | 0.03 | 88 | 1010.1 |
| 20260508014529 | 45 | 201 | 0.0 | 0.0 | 0.00 | 0.03 | 0.03 | 87 | 1009.7 |
| 20260508013023 | 46 | 201 | 0.0 | 0.0 | 0.00 | 0.03 | 0.03 | 87 | 1009.6 |
| 20260508011518 | 47 | 201 | 0.0 | 0.0 | 0.00 | 0.03 | 0.03 | 87 | 1009.5 |
| 20260508010045 | 48 | 201 | 0.0 | 0.0 | 0.00 | 0.03 | 0.03 | 87 | 1009.4 |
| 20260508004543 | 48 | 150 | 0.0 | 0.0 | 0.00 | 0.03 | 0.03 | 86 | 1009.4 |
| 20260508003044 | 49 | 150 | 0.0 | 0.0 | 0.00 | 0.03 | 0.03 | 86 | 1009.4 |
| 20260508001542 | 49 | 150 | 0.0 | 0.0 | 0.03 | 0.03 | 0.03 | 86 | 1009.2 |
| 20260508000037 | 49 | 150 | 0.0 | 0.0 | 0.03 | 0.03 | 0.03 | 86 | 1009.4 |
| 20260507234540 | 49 | 91 | 0.0 | 2.0 | 0.03 | 0.03 | 0.03 | 86 | 1009.3 |
| 20260507233032 | 49 | 62 | 0.0 | 3.0 | 0.03 | 0.03 | 0.03 | 84 | 1009.5 |
| 20260507231527 | 50 | 328 | 1.0 | 8.0 | 0.00 | 0.00 | 0.00 | 77 | 1009.6 |
| 20260507230023 | 54 | 9 | 1.0 | 13.0 | 0.00 | 0.00 | 0.00 | 62 | 1009.9 |
| 20260507224533 | 58 | 252 | 2.0 | 4.0 | 0.00 | 0.00 | 0.00 | 56 | 1009.3 |
| 20260507223051 | 59 | 270 | 2.0 | 10.0 | 0.00 | 0.00 | 0.00 | 55 | 1009.4 |
| 20260507221550 | 59 | 260 | 4.0 | 11.0 | 0.00 | 0.00 | 0.00 | 55 | 1009.5 |
| 20260507220047 | 59 | 242 | 4.0 | 11.0 | 0.00 | 0.00 | 0.00 | 55 | 1009.6 |
| 20260507214546 | 58 | 252 | 2.0 | 11.0 | 0.00 | 0.00 | 0.00 | 57 | 1009.8 |
| 20260507213049 | 59 | 220 | 2.0 | 14.0 | 0.00 | 0.00 | 0.00 | 54 | 1009.9 |
| 20260507211545 | 60 | 212 | 3.0 | 11.0 | 0.00 | 0.00 | 0.00 | 55 | 1009.7 |
| 20260507210107 | 58 | 243 | 3.0 | 10.0 | 0.00 | 0.00 | 0.00 | 57 | 1009.9 |
| 20260507204537 | 58 | 275 | 3.0 | 9.0 | 0.00 | 0.00 | 0.00 | 59 | 1010.3 |
| 20260507203035 | 57 | 180 | 5.0 | 8.0 | 0.00 | 0.00 | 0.00 | 60 | 1010.5 |
| 20260507201536 | 57 | 282 | 3.0 | 8.0 | 0.00 | 0.00 | 0.00 | 60 | 1011.0 |
| 20260507200047 | 55 | 217 | 4.0 | 11.0 | 0.00 | 0.00 | 0.00 | 62 | 1011.3 |
| 20260507194524 | 56 | 272 | 3.0 | 14.0 | 0.00 | 0.00 | 0.00 | 60 | 1011.8 |
| 20260507193026 | 56 | 283 | 5.0 | 11.0 | 0.00 | 0.00 | 0.00 | 58 | 1011.6 |
| 20260507191523 | 58 | 153 | 4.0 | 16.0 | 0.00 | 0.00 | 0.00 | 54 | 1011.8 |
| 20260507190014 | 59 | 277 | 6.0 | 15.0 | 0.00 | 0.00 | 0.00 | 50 | 1011.6 |
| 20260507184512 | 59 | 243 | 2.0 | 11.0 | 0.00 | 0.00 | 0.00 | 46 | 1011.5 |
| 20260507183007 | 59 | 212 | 3.0 | 6.0 | 0.00 | 0.00 | 0.00 | 46 | 1011.7 |
| 20260507181506 | 57 | 343 | 2.0 | 8.0 | 0.00 | 0.00 | 0.00 | 46 | 1011.9 |
| 20260507180002 | 58 | 256 | 1.0 | 8.0 | 0.00 | 0.00 | 0.00 | 43 | 1012.0 |
| 20260507174608 | 59 | 91 | 2.0 | 5.0 | 0.00 | 0.00 | 0.00 | 43 | 1012.1 |
| 20260507173027 | 60 | 101 | 2.0 | 11.0 | 0.00 | 0.00 | 0.00 | 41 | 1012.4 |
| 20260507171523 | 60 | 262 | 1.0 | 6.0 | 0.00 | 0.00 | 0.00 | 41 | 1012.7 |
| 20260507170018 | 61 | 243 | 2.0 | 7.0 | 0.00 | 0.00 | 0.00 | 41 | 1013.0 |
| 20260507164516 | 60 | 255 | 2.0 | 5.0 | 0.00 | 0.00 | 0.00 | 40 | 1013.2 |
| 20260507163016 | 60 | 22 | 0.0 | 7.0 | 0.00 | 0.00 | 0.00 | 42 | 1013.4 |
| 20260507161518 | 59 | 233 | 1.0 | 8.0 | 0.00 | 0.00 | 0.00 | 43 | 1013.6 |
| 20260507160120 | 58 | 98 | 0.0 | 5.0 | 0.00 | 0.00 | 0.00 | 45 | 1014.0 |
| 20260507154539 | 58 | 242 | 3.0 | 7.0 | 0.00 | 0.00 | 0.00 | 41 | 1014.1 |
| 20260507153038 | 57 | 153 | 1.0 | 6.0 | 0.00 | 0.00 | 0.00 | 44 | 1014.3 |
| 20260507151509 | 56 | 144 | 0.0 | 6.0 | 0.00 | 0.00 | 0.00 | 45 | 1014.4 |
| 20260507150007 | 55 | 201 | 1.0 | 6.0 | 0.00 | 0.00 | 0.00 | 45 | 1014.5 |
| 20260507144508 | 54 | 202 | 1.0 | 7.0 | 0.00 | 0.00 | 0.00 | 45 | 1014.5 |
| 20260507143006 | 54 | 244 | 0.0 | 5.0 | 0.00 | 0.00 | 0.00 | 48 | 1014.7 |
| 20260507141503 | 53 | 257 | 1.0 | 4.0 | 0.00 | 0.00 | 0.00 | 50 | 1014.8 |
| 20260507140002 | 51 | 297 | 1.0 | 7.0 | 0.00 | 0.00 | 0.00 | 51 | 1015.0 |
| 20260507134609 | 50 | 244 | 0.0 | 4.0 | 0.00 | 0.00 | 0.00 | 52 | 1015.1 |
| 20260507133106 | 49 | 188 | 0.0 | 2.0 | 0.00 | 0.00 | 0.00 | 56 | 1015.2 |
| 20260507131601 | 48 | 169 | 0.0 | 4.0 | 0.00 | 0.00 | 0.00 | 57 | 1015.0 |
| 20260507130057 | 47 | 163 | 0.0 | 2.0 | 0.00 | 0.00 | 0.00 | 60 | 1014.9 |
| 20260507124554 | 46 | 245 | 0.0 | 0.0 | 0.00 | 0.00 | 0.00 | 65 | 1014.9 |
| 20260507123055 | 44 | 246 | 0.0 | 0.0 | 0.00 | 0.00 | 0.00 | 68 | 1014.9 |
| 20260507121553 | 42 | 248 | 0.0 | 1.0 | 0.00 | 0.00 | 0.00 | 72 | 1014.8 |
| 20260507121523 | 42 | 248 | 0.0 | 1.0 | 0.00 | 0.00 | 0.00 | 72 | 1014.8 |
| 20260507120052 | 40 | 302 | 0.0 | 1.0 | 0.00 | 0.00 | 0.00 | 79 | 1014.8 |
| 20260507114558 | 37 | 19 | 0.0 | 0.0 | 0.00 | 0.00 | 0.00 | 87 | 1014.9 |
| 20260507113051 | 33 | 19 | 0.0 | 0.0 | 0.00 | 0.00 | 0.00 | 88 | 1014.8 |
| 20260507111557 | 31 | 19 | 0.0 | 0.0 | 0.00 | 0.00 | 0.00 | 88 | 1014.8 |
| 20260507110048 | 31 | 19 | 0.0 | 0.0 | 0.00 | 0.00 | 0.00 | 88 | 1014.7 |
| 20260507104545 | 30 | 19 | 0.0 | 0.0 | 0.00 | 0.00 | 0.00 | 87 | 1014.7 |
| 20260507103043 | 30 | 276 | 0.0 | 0.0 | 0.00 | 0.00 | 0.00 | 86 | 1014.6 |
| 20260507101548 | 31 | 276 | 0.0 | 0.0 | 0.00 | 0.00 | 0.00 | 85 | 1014.6 |
| 20260507100040 | 32 | 276 | 0.0 | 0.0 | 0.00 | 0.00 | 0.00 | 85 | 1014.6 |
| 20260507094539 | 32 | 276 | 0.0 | 0.0 | 0.00 | 0.00 | 0.00 | 86 | 1014.7 |
| 20260507093041 | 32 | 276 | 0.0 | 0.0 | 0.00 | 0.00 | 0.00 | 85 | 1014.8 |
| 20260507091537 | 33 | 276 | 0.0 | 0.0 | 0.00 | 0.00 | 0.00 | 85 | 1014.7 |
| 20260507090031 | 33 | 276 | 0.0 | 0.0 | 0.00 | 0.00 | 0.00 | 84 | 1014.7 |
| 20260507084528 | 33 | 276 | 0.0 | 0.0 | 0.00 | 0.00 | 0.00 | 85 | 1014.7 |
| 20260507083029 | 33 | 276 | 0.0 | 0.0 | 0.00 | 0.00 | 0.00 | 85 | 1014.8 |
| 20260507081534 | 33 | 276 | 0.0 | 0.0 | 0.00 | 0.00 | 0.00 | 83 | 1014.8 |
| 20260507080023 | 34 | 276 | 0.0 | 0.0 | 0.00 | 0.00 | 0.00 | 82 | 1014.7 |
| 20260507074516 | 34 | 276 | 0.0 | 0.0 | 0.00 | 0.00 | 0.00 | 82 | 1014.7 |
| 20260507073014 | 35 | 276 | 0.0 | 0.0 | 0.00 | 0.00 | 0.00 | 82 | 1014.6 |
| 20260507071514 | 35 | 276 | 0.0 | 0.0 | 0.00 | 0.00 | 0.00 | 81 | 1014.6 |
| 20260507070013 | 35 | 276 | 0.0 | 0.0 | 0.00 | 0.00 | 0.00 | 81 | 1014.7 |